����������;��������(kVARh)
2015-08-10 00:00;0,65
2015-08-10 00:15;2,4
2015-08-10 00:30;2,9
2015-08-10 00:45;0,9
2015-08-10 01:00;0,15
2015-08-10 01:15;0,35
2015-08-10 01:30;1,1
2015-08-10 01:45;0,5
2015-08-10 02:00;1,1
2015-08-10 02:15;0,8
2015-08-10 02:30;1,4
2015-08-10 02:45;1,7
2015-08-10 03:00;1,95
2015-08-10 03:15;2,75
2015-08-10 03:30;4,95
2015-08-10 03:45;4,4
2015-08-10 04:00;5,05
2015-08-10 04:15;4,05
2015-08-10 04:30;5,3
2015-08-10 04:45;3,6
2015-08-10 05:00;3,7
2015-08-10 05:15;3,55
2015-08-10 05:30;4,9
2015-08-10 05:45;3,55
2015-08-10 06:00;3,7
2015-08-10 06:15;1,35
2015-08-10 06:30;3,1
2015-08-10 06:45;2,3
2015-08-10 07:00;1,2
2015-08-10 07:15;0,8
2015-08-10 07:30;3,5
2015-08-10 07:45;2,1
2015-08-10 08:00;0,1
2015-08-10 08:15;0,1
2015-08-10 08:30;4,4
2015-08-10 08:45;2,5
2015-08-10 09:00;1,7
2015-08-10 09:15;0,15
2015-08-10 09:30;0,6
2015-08-10 09:45;0,65
2015-08-10 10:00;0,1
2015-08-10 10:15;0,3
2015-08-10 10:30;0
2015-08-10 10:45;0
2015-08-10 11:00;0,1
2015-08-10 11:15;0
2015-08-10 11:30;0,5
2015-08-10 11:45;0,15
2015-08-10 12:00;0,05
2015-08-10 12:15;0,05
2015-08-10 12:30;0
2015-08-10 12:45;0,75
2015-08-10 13:00;0,4
2015-08-10 13:15;0,35
2015-08-10 13:30;0,25
2015-08-10 13:45;0
2015-08-10 14:00;0,4
2015-08-10 14:15;0,4
2015-08-10 14:30;0,45
2015-08-10 14:45;1
2015-08-10 15:00;2,35
2015-08-10 15:15;2,65
2015-08-10 15:30;4,55
2015-08-10 15:45;3,65
2015-08-10 16:00;0,5
2015-08-10 16:15;2,25
2015-08-10 16:30;2,5
2015-08-10 16:45;3,4
2015-08-10 17:00;2,6
2015-08-10 17:15;1,7
2015-08-10 17:30;1,6
2015-08-10 17:45;0,3
2015-08-10 18:00;1,2
2015-08-10 18:15;0,75
2015-08-10 18:30;0,8
2015-08-10 18:45;1,05
2015-08-10 19:00;0,05
2015-08-10 19:15;0
2015-08-10 19:30;0
2015-08-10 19:45;0
2015-08-10 20:00;0,2
2015-08-10 20:15;0
2015-08-10 20:30;0
2015-08-10 20:45;0
2015-08-10 21:00;0
2015-08-10 21:15;0,35
2015-08-10 21:30;2,35
2015-08-10 21:45;8,45
2015-08-10 22:00;10,5
2015-08-10 22:15;11,85
2015-08-10 22:30;11,05
2015-08-10 22:45;11,05
2015-08-10 23:00;11,4
2015-08-10 23:15;12,4
2015-08-10 23:30;10,35
2015-08-10 23:45;6,05
2015-08-11 00:00;8,25
2015-08-11 00:15;6,8
2015-08-11 00:30;5,1
2015-08-11 00:45;4,05
2015-08-11 01:00;4,6
2015-08-11 01:15;5,75
2015-08-11 01:30;5,25
2015-08-11 01:45;4,1
2015-08-11 02:00;5,55
2015-08-11 02:15;4,9
2015-08-11 02:30;6,2
2015-08-11 02:45;6
2015-08-11 03:00;7,4
2015-08-11 03:15;7,5
2015-08-11 03:30;7,5
2015-08-11 03:45;8,85
2015-08-11 04:00;8,35
2015-08-11 04:15;8,5
2015-08-11 04:30;8,75
2015-08-11 04:45;8,1
2015-08-11 05:00;8,5
2015-08-11 05:15;9,55
2015-08-11 05:30;8,65
2015-08-11 05:45;8,1
2015-08-11 06:00;8,85
2015-08-11 06:15;7,65
2015-08-11 06:30;8,25
2015-08-11 06:45;6,3
2015-08-11 07:00;5,7
2015-08-11 07:15;4,35
2015-08-11 07:30;2,65
2015-08-11 07:45;4,1
2015-08-11 08:00;3,05
2015-08-11 08:15;1,75
2015-08-11 08:30;1,5
2015-08-11 08:45;0,1
2015-08-11 09:00;5,8
2015-08-11 09:15;4,6
2015-08-11 09:30;3,4
2015-08-11 09:45;2,4
2015-08-11 10:00;3,65
2015-08-11 10:15;3,2
2015-08-11 10:30;3,45
2015-08-11 10:45;2,45
2015-08-11 11:00;2,45
2015-08-11 11:15;1,65
2015-08-11 11:30;1,85
2015-08-11 11:45;2,6
2015-08-11 12:00;2,3
2015-08-11 12:15;6,8
2015-08-11 12:30;5,55
2015-08-11 12:45;4,55
2015-08-11 13:00;6,35
2015-08-11 13:15;4,8
2015-08-11 13:30;5,3
2015-08-11 13:45;5,85
2015-08-11 14:00;5,7
2015-08-11 14:15;7,15
2015-08-11 14:30;7,25
2015-08-11 14:45;8,2
2015-08-11 15:00;9
2015-08-11 15:15;9
2015-08-11 15:30;10,6
2015-08-11 15:45;10,6
2015-08-11 16:00;9,05
2015-08-11 16:15;9,7
2015-08-11 16:30;11,1
2015-08-11 16:45;8,75
2015-08-11 17:00;1,2
2015-08-11 17:15;1
2015-08-11 17:30;0,7
2015-08-11 17:45;0,2
2015-08-11 18:00;0
2015-08-11 18:15;0
2015-08-11 18:30;0
2015-08-11 18:45;0
2015-08-11 19:00;1,05
2015-08-11 19:15;1,15
2015-08-11 19:30;1,5
2015-08-11 19:45;0,05
2015-08-11 20:00;0,15
2015-08-11 20:15;1
2015-08-11 20:30;1,6
2015-08-11 20:45;2,75
2015-08-11 21:00;1,6
2015-08-11 21:15;3,4
2015-08-11 21:30;7,15
2015-08-11 21:45;8,9
2015-08-11 22:00;3,95
2015-08-11 22:15;0,05
2015-08-11 22:30;0,3
2015-08-11 22:45;1,3
2015-08-11 23:00;2,1
2015-08-11 23:15;2,9
2015-08-11 23:30;4,1
2015-08-11 23:45;3,05
2015-08-12 00:00;1,95
2015-08-12 00:15;1,95
2015-08-12 00:30;3,45
2015-08-12 00:45;2,05
2015-08-12 01:00;0,95
2015-08-12 01:15;0,95
2015-08-12 01:30;0
2015-08-12 01:45;0,1
2015-08-12 02:00;0
2015-08-12 02:15;0
2015-08-12 02:30;0
2015-08-12 02:45;0,05
2015-08-12 03:00;0,15
2015-08-12 03:15;0,65
2015-08-12 03:30;0,6
2015-08-12 03:45;1,3
2015-08-12 04:00;0,9
2015-08-12 04:15;1,05
2015-08-12 04:30;1,15
2015-08-12 04:45;2,15
2015-08-12 05:00;1,7
2015-08-12 05:15;1,95
2015-08-12 05:30;1,25
2015-08-12 05:45;0,7
2015-08-12 06:00;0,85
2015-08-12 06:15;0,7
2015-08-12 06:30;1
2015-08-12 06:45;0,6
2015-08-12 07:00;0
2015-08-12 07:15;0
2015-08-12 07:30;0,1
2015-08-12 07:45;0,25
2015-08-12 08:00;0,6
2015-08-12 08:15;0
2015-08-12 08:30;0,3
2015-08-12 08:45;0,05
2015-08-12 09:00;0
2015-08-12 09:15;0
2015-08-12 09:30;0
2015-08-12 09:45;0
2015-08-12 10:00;0
2015-08-12 10:15;0
2015-08-12 10:30;0
2015-08-12 10:45;0
2015-08-12 11:00;0
2015-08-12 11:15;0,25
2015-08-12 11:30;0
2015-08-12 11:45;0,05
2015-08-12 12:00;0
2015-08-12 12:15;0
2015-08-12 12:30;0
2015-08-12 12:45;0
2015-08-12 13:00;0
2015-08-12 13:15;0,05
2015-08-12 13:30;0
2015-08-12 13:45;0,4
2015-08-12 14:00;0
2015-08-12 14:15;0
2015-08-12 14:30;0
2015-08-12 14:45;0
2015-08-12 15:00;0
2015-08-12 15:15;0
2015-08-12 15:30;0,15
2015-08-12 15:45;0,75
2015-08-12 16:00;0,55
2015-08-12 16:15;1,6
2015-08-12 16:30;0,8
2015-08-12 16:45;1,7
2015-08-12 17:00;0,85
2015-08-12 17:15;0,4
2015-08-12 17:30;0,8
2015-08-12 17:45;0,15
2015-08-12 18:00;0,2
2015-08-12 18:15;0,1
2015-08-12 18:30;0
2015-08-12 18:45;0,4
2015-08-12 19:00;0,05
2015-08-12 19:15;0,05
2015-08-12 19:30;0,1
2015-08-12 19:45;0
2015-08-12 20:00;0
2015-08-12 20:15;0
2015-08-12 20:30;0
2015-08-12 20:45;0
2015-08-12 21:00;0
2015-08-12 21:15;0
2015-08-12 21:30;0,25
2015-08-12 21:45;0
2015-08-12 22:00;0
2015-08-12 22:15;1,55
2015-08-12 22:30;4,75
2015-08-12 22:45;5,2
2015-08-12 23:00;3,65
2015-08-12 23:15;3,5
2015-08-12 23:30;4,25
2015-08-12 23:45;2,4
2015-08-13 00:00;5
2015-08-13 00:15;0,15
2015-08-13 00:30;0,5
2015-08-13 00:45;0,7
2015-08-13 01:00;2,45
2015-08-13 01:15;1,55
2015-08-13 01:30;2,1
2015-08-13 01:45;3,2
2015-08-13 02:00;0,55
2015-08-13 02:15;1,55
2015-08-13 02:30;1,85
2015-08-13 02:45;2,5
2015-08-13 03:00;2,85
2015-08-13 03:15;3,6
2015-08-13 03:30;0,1
2015-08-13 03:45;0,95
2015-08-13 04:00;1,2
2015-08-13 04:15;0,65
2015-08-13 04:30;0,85
2015-08-13 04:45;1,2
2015-08-13 05:00;2,4
2015-08-13 05:15;1,55
2015-08-13 05:30;1,6
2015-08-13 05:45;1,35
2015-08-13 06:00;1,4
2015-08-13 06:15;0,9
2015-08-13 06:30;1,5
2015-08-13 06:45;0
2015-08-13 07:00;0,05
2015-08-13 07:15;0
2015-08-13 07:30;0,3
2015-08-13 07:45;0
2015-08-13 08:00;0
2015-08-13 08:15;0
2015-08-13 08:30;0
2015-08-13 08:45;0
2015-08-13 09:00;0
2015-08-13 09:15;0
2015-08-13 09:30;0
2015-08-13 09:45;0
2015-08-13 10:00;0,2
2015-08-13 10:15;0
2015-08-13 10:30;0,05
2015-08-13 10:45;0
2015-08-13 11:00;0,05
2015-08-13 11:15;0
2015-08-13 11:30;0
2015-08-13 11:45;0
2015-08-13 12:00;0
2015-08-13 12:15;0
2015-08-13 12:30;0,25
2015-08-13 12:45;0
2015-08-13 13:00;0
2015-08-13 13:15;0
2015-08-13 13:30;0
2015-08-13 13:45;0
2015-08-13 14:00;0
2015-08-13 14:15;0
2015-08-13 14:30;0
2015-08-13 14:45;0,15
2015-08-13 15:00;0,15
2015-08-13 15:15;0,45
2015-08-13 15:30;1,25
2015-08-13 15:45;1,5
2015-08-13 16:00;1,4
2015-08-13 16:15;1,4
2015-08-13 16:30;2,25
2015-08-13 16:45;3
2015-08-13 17:00;2,8
2015-08-13 17:15;2,85
2015-08-13 17:30;0
2015-08-13 17:45;0,35
2015-08-13 18:00;0
2015-08-13 18:15;0
2015-08-13 18:30;0
2015-08-13 18:45;0
2015-08-13 19:00;0
2015-08-13 19:15;0
2015-08-13 19:30;0
2015-08-13 19:45;0
2015-08-13 20:00;0
2015-08-13 20:15;0
2015-08-13 20:30;1,6
2015-08-13 20:45;0,75
2015-08-13 21:00;0
2015-08-13 21:15;0
2015-08-13 21:30;0,4
2015-08-13 21:45;0,45
2015-08-13 22:00;2,3
2015-08-13 22:15;1,1
2015-08-13 22:30;4,2
2015-08-13 22:45;2,3
2015-08-13 23:00;1,85
2015-08-13 23:15;0,25
2015-08-13 23:30;0,5
2015-08-13 23:45;0,7
2015-08-14 00:00;1,6
2015-08-14 00:15;2,3
2015-08-14 00:30;2,4
2015-08-14 00:45;3,65
2015-08-14 01:00;3,75
2015-08-14 01:15;3,15
2015-08-14 01:30;2,35
2015-08-14 01:45;4,95
2015-08-14 02:00;4
2015-08-14 02:15;4,45
2015-08-14 02:30;5,3
2015-08-14 02:45;6,95
2015-08-14 03:00;7,3
2015-08-14 03:15;8,05
2015-08-14 03:30;9,5
2015-08-14 03:45;10,05
2015-08-14 04:00;9,75
2015-08-14 04:15;10,9
2015-08-14 04:30;10,1
2015-08-14 04:45;6,45
2015-08-14 05:00;4,9
2015-08-14 05:15;4,5
2015-08-14 05:30;3,95
2015-08-14 05:45;3,15
2015-08-14 06:00;4
2015-08-14 06:15;3,7
2015-08-14 06:30;3,7
2015-08-14 06:45;2,6
2015-08-14 07:00;1,2
2015-08-14 07:15;1,05
2015-08-14 07:30;0
2015-08-14 07:45;0
2015-08-14 08:00;0
2015-08-14 08:15;0
2015-08-14 08:30;0
2015-08-14 08:45;0
2015-08-14 09:00;0
2015-08-14 09:15;0,25
2015-08-14 09:30;0
2015-08-14 09:45;0
2015-08-14 10:00;0
2015-08-14 10:15;0
2015-08-14 10:30;0
2015-08-14 10:45;0
2015-08-14 11:00;0,05
2015-08-14 11:15;0,05
2015-08-14 11:30;0
2015-08-14 11:45;0,35
2015-08-14 12:00;0
2015-08-14 12:15;0
2015-08-14 12:30;0
2015-08-14 12:45;0
2015-08-14 13:00;0
2015-08-14 13:15;0
2015-08-14 13:30;0,45
2015-08-14 13:45;6,85
2015-08-14 14:00;6,95
2015-08-14 14:15;7,55
2015-08-14 14:30;3,75
2015-08-14 14:45;2,25
2015-08-14 15:00;3
2015-08-14 15:15;5,2
2015-08-14 15:30;1,75
2015-08-14 15:45;0,05
2015-08-14 16:00;0
2015-08-14 16:15;0,2
2015-08-14 16:30;0,1
2015-08-14 16:45;0,15
2015-08-14 17:00;0,05
2015-08-14 17:15;0
2015-08-14 17:30;0
2015-08-14 17:45;0
2015-08-14 18:00;0
2015-08-14 18:15;0
2015-08-14 18:30;0
2015-08-14 18:45;0
2015-08-14 19:00;0
2015-08-14 19:15;0
2015-08-14 19:30;0
2015-08-14 19:45;0
2015-08-14 20:00;0
2015-08-14 20:15;0
2015-08-14 20:30;0
2015-08-14 20:45;0
2015-08-14 21:00;0
2015-08-14 21:15;0
2015-08-14 21:30;0
2015-08-14 21:45;0
2015-08-14 22:00;0
2015-08-14 22:15;0
2015-08-14 22:30;0
2015-08-14 22:45;0
2015-08-14 23:00;0
2015-08-14 23:15;0,35
2015-08-14 23:30;0,4
2015-08-14 23:45;0
2015-08-15 00:00;0
2015-08-15 00:15;0
2015-08-15 00:30;0
2015-08-15 00:45;0
2015-08-15 01:00;0
2015-08-15 01:15;0
2015-08-15 01:30;0
2015-08-15 01:45;0
2015-08-15 02:00;0
2015-08-15 02:15;0
2015-08-15 02:30;0
2015-08-15 02:45;0
2015-08-15 03:00;0
2015-08-15 03:15;0
2015-08-15 03:30;0
2015-08-15 03:45;0
2015-08-15 04:00;0
2015-08-15 04:15;0,05
2015-08-15 04:30;0
2015-08-15 04:45;0,05
2015-08-15 05:00;0,15
2015-08-15 05:15;0
2015-08-15 05:30;0
2015-08-15 05:45;0
2015-08-15 06:00;0
2015-08-15 06:15;0
2015-08-15 06:30;0
2015-08-15 06:45;0
2015-08-15 07:00;1,25
2015-08-15 07:15;1,45
2015-08-15 07:30;1,4
2015-08-15 07:45;0,25
2015-08-15 08:00;0
2015-08-15 08:15;0
2015-08-15 08:30;0
2015-08-15 08:45;0
2015-08-15 09:00;0
2015-08-15 09:15;0
2015-08-15 09:30;0
2015-08-15 09:45;0
2015-08-15 10:00;0
2015-08-15 10:15;0
2015-08-15 10:30;0
2015-08-15 10:45;0
2015-08-15 11:00;0
2015-08-15 11:15;0
2015-08-15 11:30;0
2015-08-15 11:45;0
2015-08-15 12:00;0
2015-08-15 12:15;2,55
2015-08-15 12:30;6,25
2015-08-15 12:45;5,4
2015-08-15 13:00;5,85
2015-08-15 13:15;0,5
2015-08-15 13:30;0
2015-08-15 13:45;0,05
2015-08-15 14:00;0
2015-08-15 14:15;0
2015-08-15 14:30;0,05
2015-08-15 14:45;0,15
2015-08-15 15:00;1,1
2015-08-15 15:15;0,6
2015-08-15 15:30;0,35
2015-08-15 15:45;0,5
2015-08-15 16:00;1,1
2015-08-15 16:15;0,7
2015-08-15 16:30;1,2
2015-08-15 16:45;0,75
2015-08-15 17:00;1,05
2015-08-15 17:15;0,7
2015-08-15 17:30;0,4
2015-08-15 17:45;0,1
2015-08-15 18:00;0
2015-08-15 18:15;0,3
2015-08-15 18:30;0,1
2015-08-15 18:45;1,4
2015-08-15 19:00;1,2
2015-08-15 19:15;1,45
2015-08-15 19:30;1,55
2015-08-15 19:45;1
2015-08-15 20:00;0,95
2015-08-15 20:15;0,1
2015-08-15 20:30;0,25
2015-08-15 20:45;0,4
2015-08-15 21:00;0
2015-08-15 21:15;0
2015-08-15 21:30;0
2015-08-15 21:45;0
2015-08-15 22:00;0
2015-08-15 22:15;1,2
2015-08-15 22:30;4,7
2015-08-15 22:45;4,6
2015-08-15 23:00;3,75
2015-08-15 23:15;2,8
2015-08-15 23:30;2,65
2015-08-15 23:45;1,9
2015-08-16 00:00;2,8
2015-08-16 00:15;3,05
2015-08-16 00:30;4,45
2015-08-16 00:45;4,25
2015-08-16 01:00;4,9
2015-08-16 01:15;1,1
2015-08-16 01:30;0,2
2015-08-16 01:45;0,85
2015-08-16 02:00;1,55
2015-08-16 02:15;1,65
2015-08-16 02:30;1,6
2015-08-16 02:45;1,4
2015-08-16 03:00;2,05
2015-08-16 03:15;2,3
2015-08-16 03:30;3,65
2015-08-16 03:45;3,85
2015-08-16 04:00;1,85
2015-08-16 04:15;2,5
2015-08-16 04:30;5
2015-08-16 04:45;4
2015-08-16 05:00;4,15
2015-08-16 05:15;5,25
2015-08-16 05:30;5
2015-08-16 05:45;4,9
2015-08-16 06:00;5,2
2015-08-16 06:15;4,15
2015-08-16 06:30;8,6
2015-08-16 06:45;7,55
2015-08-16 07:00;6,2
2015-08-16 07:15;3,55
2015-08-16 07:30;1,45
2015-08-16 07:45;0
2015-08-16 08:00;0
2015-08-16 08:15;0
2015-08-16 08:30;0
2015-08-16 08:45;4,55
2015-08-16 09:00;4,7
2015-08-16 09:15;4,55
2015-08-16 09:30;2,15
2015-08-16 09:45;1,75
2015-08-16 10:00;0,7
2015-08-16 10:15;0,8
2015-08-16 10:30;0
2015-08-16 10:45;0
2015-08-16 11:00;0
2015-08-16 11:15;0
2015-08-16 11:30;0
2015-08-16 11:45;0,1
2015-08-16 12:00;4,1
2015-08-16 12:15;1,75
2015-08-16 12:30;0
2015-08-16 12:45;0
2015-08-16 13:00;0
2015-08-16 13:15;0
2015-08-16 13:30;0
2015-08-16 13:45;0
2015-08-16 14:00;0
2015-08-16 14:15;0
2015-08-16 14:30;0
2015-08-16 14:45;0
2015-08-16 15:00;0
2015-08-16 15:15;0
2015-08-16 15:30;0
2015-08-16 15:45;0
2015-08-16 16:00;0
2015-08-16 16:15;0
2015-08-16 16:30;0
2015-08-16 16:45;0
2015-08-16 17:00;0
2015-08-16 17:15;0
2015-08-16 17:30;0
2015-08-16 17:45;0
2015-08-16 18:00;0
2015-08-16 18:15;0,3
2015-08-16 18:30;0,4
2015-08-16 18:45;1
2015-08-16 19:00;0,3
2015-08-16 19:15;0,75
2015-08-16 19:30;0,15
2015-08-16 19:45;0,95
2015-08-16 20:00;0,35
2015-08-16 20:15;0,15
2015-08-16 20:30;1,9
2015-08-16 20:45;2,4
2015-08-16 21:00;1,4
2015-08-16 21:15;1,8
2015-08-16 21:30;1,3
2015-08-16 21:45;1,35
2015-08-16 22:00;1,75
2015-08-16 22:15;3,5
2015-08-16 22:30;4,7
2015-08-16 22:45;0,1
2015-08-16 23:00;0
2015-08-16 23:15;0,35
2015-08-16 23:30;1,85
2015-08-16 23:45;2,45

